Location: Firdgum
(53.2488°N, 5.5615°E)
Time: 02:06:01
(UTC+00:00)

CZ-2C R/B - Pass Details

Date: 08 December 2019
Orbit: 785 x 870 km, 98.3° (Epoch: 20 January)

Event Time Altitude Azimuth Distance (km) Brightness Sun altitude
Rises 06:39:10 0° 148° (SSE) 3,342 7.0 -8.3°
Reaches altitude 10° 06:41:34 10° 144° (SE) 2,401 6.2 -7.9°
Maximum altitude 06:46:44 55° 68° (ENE) 962 3.3 -7.3°
Drops below altitude 10° 06:51:49 10° 352° (N) 2,373 4.7 -6.6°
Sets 06:54:10 0° 348° (NNW) 3,300 5.4 -6.3°
